Location: *
(51.1248°S, 108.4023°W)
Time: 20:44:36
(UTC+00:00)

Cosmos 1937 Rocket - Pass Details

Date: 26 October 2021
Orbit: 746 x 781 km, 74.0° (Epoch: 03 December)

Event Time Altitude Azimuth Distance (km) Brightness Sun altitude
Exits shadow 10:00:54 10° 1° (N) 2,351 5.6 -14.9°
Reaches altitude 10° 10:00:55 10° 1° (N) 2,346 5.6 -14.9°
Maximum altitude 10:06:02 48° 74° (ENE) 1,030 4.4 -14.3°
Drops below altitude 10° 10:11:11 10° 146° (SSE) 2,363 7.3 -13.7°
Sets 10:13:38 0° 151° (SSE) 3,293 8.2 -13.4°
